Meteo Giornale » Osservazioni meteo Francia » Annecy-Meythet

ore: 18:30 - Osservazioni Meteo Annecy-Meythet
Lat. 45° 55' N Lon. 6° 5' E Alt. 463 metri s.l.m.

nuvoloso Europe/Paris

28 °C

Nuvoloso

Temp. 24 Ore

18 °C

29 °C

Ovest/Sud-Ovest

16.7 Km/h

Dew point 17 °C

Umidità 51 %

Visibilità  10 Km

Il sole sorge alle ore 05:42

Il sole tramonta alle ore 21:30

Data e Ora Cielo e Fenomeni T °C DP °C Um. % Pres. hPa Vis. km Vento km/h
Oggi h: 18:30 nuvoloso Nuvoloso 28 17 51 1016 10 O/SO 16.7
Oggi h: 18:00 poco_nuvoloso Poco Nuvoloso 28 17 51 1016 10 O/SO 18.5
Oggi h: 17:30 sereno Sereno 28 17 51 1016 10 SO 20.3
Oggi h: 17:00 sereno Sereno 29 17 48 1016 10 O/SO 20.3
Oggi h: 16:30 sereno Sereno 29 18 51 1016 10 SO 14.8
Oggi h: 16:00 sereno Sereno 29 16 45 1016 10 SO 14.8
Oggi h: 15:30 sereno Sereno 29 17 48 1016 10 O 16.7
Oggi h: 15:00 sereno Sereno 29 17 48 1016 10 O/SO 11.1
Oggi h: 14:30 sereno Sereno 29 16 45 1015 10 O 11.1
Oggi h: 14:00 sereno Sereno 28 17 51 1015 10 N 9.3
Oggi h: 13:30 poco_nuvoloso Poco Nuvoloso 27 19 61 1016 10 O/SO 9.3
Oggi h: 13:00 sereno Sereno 27 20 65 1016 10 O/SO 9.3
Oggi h: 12:30 sereno Sereno 27 19 61 1016 10 O/SO 14.8
Oggi h: 12:00 molto_nuvoloso Molto Nuvoloso 26 19 65 1016 10 SO 14.8
Oggi h: 11:30 poco_nuvoloso Poco Nuvoloso 26 19 65 1016 10 O/SO 9.3
Oggi h: 11:00 nuvoloso Nuvoloso 25 19 69 1016 10 N 5.5
Oggi h: 10:30 molto_nuvoloso Molto Nuvoloso 25 20 73 1016 10 S/SO 9.3
Oggi h: 10:00 molto_nuvoloso Molto Nuvoloso 24 20 78 1016 9 S/SO 11.1
Oggi h: 09:30 molto_nuvoloso Molto Nuvoloso 23 20 83 1016 10 N 5.5
Oggi h: 09:00 sereno Sereno 23 19 78 1016 10 N 0
Oggi h: 08:30 poco_nuvoloso Poco Nuvoloso 22 19 83 1016 10 N 5.5
Oggi h: 08:00 molto_nuvoloso Molto Nuvoloso 21 19 88 1015 10 NE 9.3
Oggi h: 07:30 coperto Coperto 20 19 93 1016 10 NE 7.4
Oggi h: 07:00 coperto Coperto 20 19 93 1015 9 N 7.4
Oggi h: 06:30 coperto Coperto 19 18 93 1015 10 N 5.5
Oggi h: 06:00 molto_nuvoloso Molto Nuvoloso 18 18 100 1015 10 N 3.7
Oggi h: 05:30 sereno Sereno 18 18 100 1015 10 N 3.7
Oggi h: 04:30 nuvoloso Nuvoloso 19 18 93 1015 10 N 3.7
Oggi h: 04:00 sereno Sereno 19 18 93 1015 10 N 0
Oggi h: 03:30 sereno Sereno 19 18 93 1015 10 N 3.7
Oggi h: 03:00 sereno Sereno 20 19 93 1015 10 N 3.7
Oggi h: 02:30 sereno Sereno 20 18 88 1015 10 NO 7.4
Oggi h: 02:00 sereno Sereno 20 19 93 1016 10 N 5.5
Oggi h: 01:30 sereno Sereno 20 19 93 1016 10 O/NO 13
Oggi h: 00:30 sereno Sereno 21 19 88 1016 10 NO 7.4
Oggi h: 00:00 sereno Sereno 21 19 88 1015 10 N 5.5
Ieri h: 23:30 coperto_temporali Temporale 21 20 94 1016 10 N 5.5
Ieri h: 23:00 molto_nuvoloso Molto Nuvoloso 21 20 94 1016 10 N 5.5
Ieri h: 22:30 molto_nuvoloso Molto Nuvoloso 21 19 88 1015 10 N 9.3
Ieri h: 22:00 coperto_pioggia Pioggia Debole Temporale nelle Vicinanze 22 19 83 1015 9 N/NO 11.1
Ieri h: 21:30 coperto_temporali Temporale 21 19 88 1015 10 E/NE 14.8
Ieri h: 21:00 nuvoloso_temporali Temporale con Pioggia Debole Foschia 21 20 94 1015 5 E/NE 13
Ieri h: 20:30 nuvoloso_temporali Temporale con Pioggia Debole 25 18 65 1014 10 S 13
Ieri h: 20:00 nuvoloso_temporali Temporale nelle Vicinanze 25 18 65 1014 10 SO 13